Time,TemperatureF,DewpointF,PressureIn,WindDirection,WindDirectionDegrees,WindSpeedMPH,WindSpeedGustMPH,Humidity,HourlyPrecipIn,Conditions,Clouds,dailyrainin,SoftwareType,DateUTC
2013-10-06 00:00:00,56.3,52.8,29.86,WNW,283,2.0,3.0,88,0.00,,,0.00,Wunderground v.1.15,2013-10-06 05:00:00,
2013-10-06 00:05:00,56.3,52.5,29.86,SW,231,1.0,3.0,87,0.00,,,0.00,Wunderground v.1.15,2013-10-06 05:05:00,
2013-10-06 00:15:00,56.1,52.6,29.86,WSW,257,1.0,1.0,88,0.00,,,0.00,Wunderground v.1.15,2013-10-06 05:15:00,
2013-10-06 00:20:00,56.1,52.6,29.85,SW,224,1.0,1.0,88,0.00,,,0.00,Wunderground v.1.15,2013-10-06 05:20:00,
2013-10-06 00:25:00,56.0,52.2,29.86,SW,226,2.0,2.0,87,0.00,,,0.00,Wunderground v.1.15,2013-10-06 05:25:00,
2013-10-06 00:30:00,56.0,52.2,29.86,WSW,257,2.0,2.0,87,0.00,,,0.00,Wunderground v.1.15,2013-10-06 05:30:00,
2013-10-06 00:40:00,55.7,52.2,29.86,NW,316,2.0,2.0,88,0.00,,,0.00,Wunderground v.1.15,2013-10-06 05:40:00,
2013-10-06 00:45:00,55.4,51.6,29.86,WNW,293,2.0,3.0,87,0.00,,,0.00,Wunderground v.1.15,2013-10-06 05:45:00,
2013-10-06 00:50:00,55.2,50.8,29.86,NNE,20,2.0,3.0,85,0.00,,,0.02,Wunderground v.1.15,2013-10-06 05:50:00,
2013-10-06 00:55:00,55.1,51.0,29.86,SW,219,3.0,3.0,86,0.00,,,0.02,Wunderground v.1.15,2013-10-06 05:55:00,
2013-10-06 01:00:00,55.0,50.9,29.86,North,11,1.0,2.0,86,0.00,,,0.02,Wunderground v.1.15,2013-10-06 06:00:00,
2013-10-06 01:05:00,55.0,50.9,29.86,WNW,285,1.0,2.0,86,0.00,,,0.02,Wunderground v.1.15,2013-10-06 06:05:00,
2013-10-06 01:10:00,54.9,50.8,29.85,NNW,337,1.0,2.0,86,0.00,,,0.02,Wunderground v.1.15,2013-10-06 06:10:00,
2013-10-06 01:15:00,54.8,50.4,29.85,NE,37,2.0,2.0,85,0.00,,,0.02,Wunderground v.1.15,2013-10-06 06:15:00,
2013-10-06 01:25:00,54.7,50.3,29.85,North,352,1.0,1.0,85,0.00,,,0.02,Wunderground v.1.15,2013-10-06 06:25:00,
2013-10-06 01:30:00,54.7,50.3,29.85,NE,44,1.0,1.0,85,0.00,,,0.02,Wunderground v.1.15,2013-10-06 06:30:00,
2013-10-06 01:35:00,54.5,50.1,29.85,West,260,1.0,1.0,85,0.00,,,0.02,Wunderground v.1.15,2013-10-06 06:35:00,
2013-10-06 01:40:00,54.5,50.1,29.85,West,269,0.0,0.0,85,0.00,,,0.02,Wunderground v.1.15,2013-10-06 06:40:00,
2013-10-06 01:45:00,54.3,49.9,29.85,West,271,0.0,0.0,85,0.00,,,0.02,Wunderground v.1.15,2013-10-06 06:45:00,
2013-10-06 01:50:00,54.1,49.7,29.84,West,270,0.0,0.0,85,0.00,,,0.02,Wunderground v.1.15,2013-10-06 06:50:00,
2013-10-06 01:55:00,53.9,49.5,29.84,West,271,0.0,0.0,85,0.00,,,0.02,Wunderground v.1.15,2013-10-06 06:55:00,
2013-10-06 02:00:00,53.6,49.5,29.84,West,271,0.0,0.0,86,0.00,,,0.02,Wunderground v.1.15,2013-10-06 07:00:00,
2013-10-06 02:05:00,53.2,49.4,29.84,West,271,0.0,0.0,87,0.00,,,0.02,Wunderground v.1.15,2013-10-06 07:05:00,
2013-10-06 02:10:00,52.8,49.0,29.84,West,271,0.0,0.0,87,0.00,,,0.02,Wunderground v.1.15,2013-10-06 07:10:00,
2013-10-06 02:15:00,52.4,48.9,29.84,West,270,0.0,0.0,88,0.00,,,0.02,Wunderground v.1.15,2013-10-06 07:15:00,
2013-10-06 02:20:00,52.0,48.9,29.84,West,270,0.0,0.0,89,0.00,,,0.02,Wunderground v.1.15,2013-10-06 07:20:00,
2013-10-06 02:25:00,51.7,48.9,29.85,SW,222,0.0,1.0,90,0.00,,,0.02,Wunderground v.1.15,2013-10-06 07:25:00,
2013-10-06 02:30:00,51.5,48.7,29.84,SW,222,1.0,1.0,90,0.00,,,0.02,Wunderground v.1.15,2013-10-06 07:30:00,
2013-10-06 02:35:00,51.2,48.7,29.85,SW,221,2.0,3.0,91,0.00,,,0.02,Wunderground v.1.15,2013-10-06 07:35:00,
2013-10-06 02:40:00,51.1,48.6,29.85,SW,226,2.0,2.0,91,0.00,,,0.02,Wunderground v.1.15,2013-10-06 07:40:00,
2013-10-06 02:45:00,51.0,48.5,29.85,SW,233,1.0,2.0,91,0.00,,,0.02,Wunderground v.1.15,2013-10-06 07:45:00,
2013-10-06 02:50:00,50.8,48.3,29.84,SW,214,0.0,0.0,91,0.00,,,0.02,Wunderground v.1.15,2013-10-06 07:50:00,
2013-10-06 02:55:00,50.7,48.2,29.84,SW,225,1.0,1.0,91,0.00,,,0.02,Wunderground v.1.15,2013-10-06 07:55:00,
2013-10-06 03:00:00,50.6,48.4,29.83,SW,225,0.0,0.0,92,0.00,,,0.02,Wunderground v.1.15,2013-10-06 08:00:00,
2013-10-06 03:10:00,50.4,48.2,29.83,SW,223,1.0,1.0,92,0.00,,,0.02,Wunderground v.1.15,2013-10-06 08:10:00,
2013-10-06 03:15:00,50.2,48.0,29.83,SSW,211,1.0,2.0,92,0.00,,,0.02,Wunderground v.1.15,2013-10-06 08:15:00,
2013-10-06 03:20:00,50.1,47.9,29.83,SW,222,1.0,2.0,92,0.00,,,0.02,Wunderground v.1.15,2013-10-06 08:20:00,
2013-10-06 03:25:00,49.9,47.7,29.83,SW,222,1.0,2.0,92,0.00,,,0.02,Wunderground v.1.15,2013-10-06 08:25:00,
2013-10-06 03:30:00,49.8,47.9,29.83,SW,221,1.0,2.0,93,0.00,,,0.02,Wunderground v.1.15,2013-10-06 08:30:00,
2013-10-06 03:35:00,49.8,47.9,29.83,SSW,204,1.0,2.0,93,0.00,,,0.02,Wunderground v.1.15,2013-10-06 08:35:00,
2013-10-06 03:40:00,49.7,47.8,29.83,SSW,200,2.0,2.0,93,0.00,,,0.02,Wunderground v.1.15,2013-10-06 08:40:00,
2013-10-06 03:45:00,49.6,47.7,29.83,SSW,198,2.0,2.0,93,0.00,,,0.02,Wunderground v.1.15,2013-10-06 08:45:00,
2013-10-06 03:50:00,49.5,47.6,29.83,SSW,203,2.0,2.0,93,0.00,,,0.02,Wunderground v.1.15,2013-10-06 08:50:00,
2013-10-06 03:55:00,49.3,47.4,29.83,SSW,198,2.0,2.0,93,0.00,,,0.02,Wunderground v.1.15,2013-10-06 08:55:00,
2013-10-06 04:00:00,49.2,47.3,29.83,SSW,197,1.0,1.0,93,0.00,,,0.02,Wunderground v.1.15,2013-10-06 09:00:00,
2013-10-06 04:05:00,48.9,47.0,29.82,SSW,197,0.0,1.0,93,0.00,,,0.02,Wunderground v.1.15,2013-10-06 09:05:00,
2013-10-06 04:10:00,48.7,47.1,29.83,SSW,195,0.0,0.0,94,0.00,,,0.02,Wunderground v.1.15,2013-10-06 09:10:00,
2013-10-06 04:15:00,48.5,46.9,29.83,South,188,1.0,1.0,94,0.00,,,0.02,Wunderground v.1.15,2013-10-06 09:15:00,
2013-10-06 04:20:00,48.3,46.7,29.83,South,188,1.0,1.0,94,0.00,,,0.02,Wunderground v.1.15,2013-10-06 09:20:00,
2013-10-06 04:25:00,48.1,46.5,29.83,SSW,194,1.0,2.0,94,0.00,,,0.02,Wunderground v.1.15,2013-10-06 09:25:00,
2013-10-06 04:30:00,48.0,46.4,29.83,SSW,193,1.0,1.0,94,0.00,,,0.02,Wunderground v.1.15,2013-10-06 09:30:00,
2013-10-06 04:35:00,48.0,46.6,29.83,South,191,1.0,1.0,95,0.00,,,0.02,Wunderground v.1.15,2013-10-06 09:35:00,
2013-10-06 04:40:00,48.0,46.6,29.82,SSW,200,1.0,1.0,95,0.00,,,0.02,Wunderground v.1.15,2013-10-06 09:40:00,
2013-10-06 04:45:00,47.9,46.5,29.83,SSW,193,1.0,2.0,95,0.00,,,0.02,Wunderground v.1.15,2013-10-06 09:45:00,
2013-10-06 04:50:00,47.9,46.5,29.83,SSW,197,2.0,2.0,95,0.00,,,0.02,Wunderground v.1.15,2013-10-06 09:50:00,
2013-10-06 04:55:00,47.9,46.5,29.83,SSW,194,2.0,3.0,95,0.00,,,0.02,Wunderground v.1.15,2013-10-06 09:55:00,
2013-10-06 05:00:00,47.9,46.5,29.83,SSW,201,2.0,3.0,95,0.00,,,0.02,Wunderground v.1.15,2013-10-06 10:00:00,
2013-10-06 05:10:00,48.1,46.7,29.83,SSW,212,3.0,3.0,95,0.00,,,0.02,Wunderground v.1.15,2013-10-06 10:10:00,
2013-10-06 05:15:00,48.1,46.7,29.83,SW,228,3.0,3.0,95,0.00,,,0.02,Wunderground v.1.15,2013-10-06 10:15:00,
2013-10-06 05:20:00,48.1,46.7,29.83,SSW,200,3.0,3.0,95,0.00,,,0.02,Wunderground v.1.15,2013-10-06 10:20:00,
2013-10-06 05:25:00,48.1,46.5,29.83,SSW,205,3.0,3.0,94,0.00,,,0.02,Wunderground v.1.15,2013-10-06 10:25:00,
2013-10-06 05:30:00,48.1,46.5,29.83,SW,235,3.0,3.0,94,0.00,,,0.02,Wunderground v.1.15,2013-10-06 10:30:00,
2013-10-06 05:35:00,48.0,46.4,29.82,SW,224,3.0,3.0,94,0.00,,,0.02,Wunderground v.1.15,2013-10-06 10:35:00,
2013-10-06 05:40:00,48.0,46.4,29.82,SW,231,3.0,4.0,94,0.00,,,0.02,Wunderground v.1.15,2013-10-06 10:40:00,
2013-10-06 05:45:00,47.9,46.3,29.82,SSW,203,3.0,4.0,94,0.00,,,0.02,Wunderground v.1.15,2013-10-06 10:45:00,
2013-10-06 05:50:00,47.8,46.2,29.82,SSW,210,2.0,3.0,94,0.00,,,0.02,Wunderground v.1.15,2013-10-06 10:50:00,
2013-10-06 05:55:00,47.7,46.1,29.82,SSW,200,2.0,3.0,94,0.00,,,0.02,Wunderground v.1.15,2013-10-06 10:55:00,
2013-10-06 06:00:00,47.6,46.0,29.82,SW,217,2.0,2.0,94,0.00,,,0.02,Wunderground v.1.15,2013-10-06 11:00:00,
2013-10-06 06:05:00,47.4,45.8,29.83,SSW,207,1.0,2.0,94,0.00,,,0.02,Wunderground v.1.15,2013-10-06 11:05:00,
2013-10-06 06:10:00,47.2,45.6,29.83,SSW,212,2.0,2.0,94,0.00,,,0.02,Wunderground v.1.15,2013-10-06 11:10:00,
2013-10-06 06:15:00,47.0,45.6,29.82,SSW,203,2.0,2.0,95,0.00,,,0.02,Wunderground v.1.15,2013-10-06 11:15:00,
2013-10-06 06:20:00,47.0,45.6,29.82,SSW,212,2.0,2.0,95,0.00,,,0.02,Wunderground v.1.15,2013-10-06 11:20:00,
2013-10-06 06:25:00,46.9,45.5,29.82,SSW,212,2.0,2.0,95,0.00,,,0.02,Wunderground v.1.15,2013-10-06 11:25:00,
2013-10-06 06:30:00,46.9,45.5,29.82,SW,231,2.0,2.0,95,0.00,,,0.02,Wunderground v.1.15,2013-10-06 11:30:00,
2013-10-06 06:35:00,46.8,45.4,29.82,SW,220,2.0,2.0,95,0.00,,,0.02,Wunderground v.1.15,2013-10-06 11:35:00,
2013-10-06 06:40:00,46.8,45.4,29.82,SW,219,2.0,2.0,95,0.00,,,0.02,Wunderground v.1.15,2013-10-06 11:40:00,
2013-10-06 06:45:00,46.6,45.2,29.82,SW,224,2.0,2.0,95,0.00,,,0.02,Wunderground v.1.15,2013-10-06 11:45:00,
2013-10-06 06:50:00,46.4,45.0,29.82,SW,217,2.0,2.0,95,0.00,,,0.02,Wunderground v.1.15,2013-10-06 11:50:00,
2013-10-06 06:55:00,46.2,44.8,29.82,SSW,208,2.0,2.0,95,0.00,,,0.02,Wunderground v.1.15,2013-10-06 11:55:00,
2013-10-06 07:00:00,46.1,44.7,29.82,SW,218,2.0,2.0,95,0.00,,,0.02,Wunderground v.1.15,2013-10-06 12:00:00,
2013-10-06 07:05:00,46.1,44.7,29.82,SW,217,2.0,2.0,95,0.00,,,0.02,Wunderground v.1.15,2013-10-06 12:05:00,
2013-10-06 07:10:00,46.2,44.8,29.82,SW,217,2.0,2.0,95,0.00,,,0.02,Wunderground v.1.15,2013-10-06 12:10:00,
2013-10-06 07:15:00,46.2,44.8,29.82,SSW,207,2.0,2.0,95,0.00,,,0.02,Wunderground v.1.15,2013-10-06 12:15:00,
2013-10-06 07:20:00,46.1,44.7,29.82,SW,221,2.0,2.0,95,0.00,,,0.02,Wunderground v.1.15,2013-10-06 12:20:00,
2013-10-06 07:25:00,46.1,44.7,29.82,SSW,200,2.0,2.0,95,0.00,,,0.02,Wunderground v.1.15,2013-10-06 12:25:00,
2013-10-06 07:30:00,46.0,44.6,29.82,SW,221,2.0,2.0,95,0.00,,,0.02,Wunderground v.1.15,2013-10-06 12:30:00,
2013-10-06 07:35:00,46.0,44.9,29.82,SW,217,2.0,3.0,96,0.00,,,0.02,Wunderground v.1.15,2013-10-06 12:35:00,
2013-10-06 07:40:00,46.0,44.9,29.82,SW,236,3.0,3.0,96,0.00,,,0.02,Wunderground v.1.15,2013-10-06 12:40:00,
2013-10-06 07:45:00,46.0,44.9,29.82,SW,214,3.0,3.0,96,0.00,,,0.02,Wunderground v.1.15,2013-10-06 12:45:00,
2013-10-06 07:50:00,46.2,45.1,29.82,SW,226,3.0,3.0,96,0.00,,,0.02,Wunderground v.1.15,2013-10-06 12:50:00,
2013-10-06 07:55:00,46.5,45.4,29.82,SSW,195,3.0,3.0,96,0.00,,,0.02,Wunderground v.1.15,2013-10-06 12:55:00,
2013-10-06 08:00:00,46.8,45.7,29.82,SW,226,4.0,4.0,96,0.00,,,0.02,Wunderground v.1.15,2013-10-06 13:00:00,
2013-10-06 08:05:00,47.1,46.0,29.82,SW,233,4.0,6.0,96,0.00,,,0.02,Wunderground v.1.15,2013-10-06 13:05:00,
2013-10-06 08:10:00,47.3,46.2,29.82,SW,221,4.0,4.0,96,0.00,,,0.02,Wunderground v.1.15,2013-10-06 13:10:00,
2013-10-06 08:15:00,47.3,45.9,29.81,SW,226,4.0,4.0,95,0.00,,,0.02,Wunderground v.1.15,2013-10-06 13:15:00,
2013-10-06 08:20:00,47.7,46.3,29.81,WSW,250,4.0,4.0,95,0.00,,,0.02,Wunderground v.1.15,2013-10-06 13:20:00,
2013-10-06 08:25:00,48.0,46.4,29.81,SW,217,2.0,4.0,94,0.00,,,0.02,Wunderground v.1.15,2013-10-06 13:25:00,
2013-10-06 08:30:00,48.3,46.4,29.81,SSW,212,2.0,4.0,93,0.00,,,0.02,Wunderground v.1.15,2013-10-06 13:30:00,
2013-10-06 08:35:00,48.6,46.1,29.81,SSW,200,3.0,4.0,91,0.00,,,0.02,Wunderground v.1.15,2013-10-06 13:35:00,
2013-10-06 08:40:00,48.9,46.1,29.81,SW,229,3.0,3.0,90,0.00,,,0.02,Wunderground v.1.15,2013-10-06 13:40:00,
2013-10-06 08:45:00,49.0,45.9,29.81,NNW,340,3.0,3.0,89,0.00,,,0.02,Wunderground v.1.15,2013-10-06 13:45:00,
2013-10-06 08:50:00,49.2,45.2,29.81,SW,225,3.0,3.0,86,0.00,,,0.02,Wunderground v.1.15,2013-10-06 13:50:00,
2013-10-06 08:55:00,49.3,44.7,29.81,WSW,255,4.0,4.0,84,0.00,,,0.02,Wunderground v.1.15,2013-10-06 13:55:00,
2013-10-06 09:00:00,49.4,44.5,29.80,WSW,257,4.0,4.0,83,0.00,,,0.02,Wunderground v.1.15,2013-10-06 14:00:00,
2013-10-06 09:05:00,49.6,44.6,29.81,WSW,240,4.0,4.0,83,0.00,,,0.02,Wunderground v.1.15,2013-10-06 14:05:00,
2013-10-06 09:10:00,50.1,45.1,29.81,South,172,3.0,3.0,83,0.00,,,0.02,Wunderground v.1.15,2013-10-06 14:10:00,
2013-10-06 09:15:00,50.3,44.4,29.80,SW,231,2.0,3.0,80,0.00,,,0.02,Wunderground v.1.15,2013-10-06 14:15:00,
2013-10-06 09:20:00,50.4,43.5,29.80,SW,214,2.0,7.0,77,0.00,,,0.02,Wunderground v.1.15,2013-10-06 14:20:00,
2013-10-06 09:25:00,50.5,43.2,29.80,WSW,243,4.0,7.0,76,0.00,,,0.02,Wunderground v.1.15,2013-10-06 14:25:00,
2013-10-06 09:30:00,50.7,42.7,29.80,SSW,207,4.0,4.0,74,0.00,,,0.02,Wunderground v.1.15,2013-10-06 14:30:00,
2013-10-06 09:35:00,51.1,42.4,29.80,SW,221,3.0,7.0,72,0.00,,,0.02,Wunderground v.1.15,2013-10-06 14:35:00,
2013-10-06 09:40:00,51.4,41.9,29.80,WSW,238,4.0,4.0,70,0.00,,,0.02,Wunderground v.1.15,2013-10-06 14:40:00,
2013-10-06 09:45:00,51.5,41.3,29.80,SW,231,4.0,4.0,68,0.00,,,0.02,Wunderground v.1.15,2013-10-06 14:45:00,
2013-10-06 09:50:00,51.7,41.9,29.80,SW,221,3.0,3.0,69,0.00,,,0.02,Wunderground v.1.15,2013-10-06 14:50:00,
2013-10-06 09:55:00,52.1,41.9,29.80,SW,229,4.0,4.0,68,0.00,,,0.02,Wunderground v.1.15,2013-10-06 14:55:00,
2013-10-06 10:00:00,52.2,41.2,29.80,SW,220,5.0,6.0,66,0.00,,,0.02,Wunderground v.1.15,2013-10-06 15:00:00,
2013-10-06 10:05:00,52.4,40.6,29.80,West,265,6.0,6.0,64,0.00,,,0.02,Wunderground v.1.15,2013-10-06 15:05:00,
2013-10-06 10:10:00,52.7,41.7,29.80,West,260,6.0,6.0,66,0.00,,,0.02,Wunderground v.1.15,2013-10-06 15:10:00,
2013-10-06 10:15:00,53.0,41.5,29.80,SSW,201,3.0,9.0,65,0.00,,,0.02,Wunderground v.1.15,2013-10-06 15:15:00,
2013-10-06 10:20:00,53.4,40.7,29.80,SW,221,4.0,5.0,62,0.00,,,0.02,Wunderground v.1.15,2013-10-06 15:20:00,
2013-10-06 10:25:00,53.2,41.3,29.80,West,275,4.0,5.0,64,0.00,,,0.02,Wunderground v.1.15,2013-10-06 15:25:00,
2013-10-06 10:35:00,53.4,41.1,29.80,SW,224,4.0,5.0,63,0.00,,,0.02,Wunderground v.1.15,2013-10-06 15:35:00,
2013-10-06 10:40:00,53.6,41.3,29.80,South,187,5.0,5.0,63,0.00,,,0.02,Wunderground v.1.15,2013-10-06 15:40:00,
2013-10-06 10:45:00,53.9,41.6,29.80,SW,236,5.0,5.0,63,0.00,,,0.02,Wunderground v.1.15,2013-10-06 15:45:00,
2013-10-06 10:50:00,53.8,41.5,29.80,SW,217,4.0,4.0,63,0.00,,,0.02,Wunderground v.1.15,2013-10-06 15:50:00,
2013-10-06 10:55:00,54.0,41.3,29.80,SW,233,4.0,11.0,62,0.00,,,0.02,Wunderground v.1.15,2013-10-06 15:55:00,
2013-10-06 11:00:00,54.1,41.4,29.80,WSW,243,5.0,8.0,62,0.00,,,0.02,Wunderground v.1.15,2013-10-06 16:00:00,
2013-10-06 11:05:00,53.7,40.6,29.80,SW,226,7.0,8.0,61,0.00,,,0.02,Wunderground v.1.15,2013-10-06 16:05:00,
2013-10-06 11:10:00,53.5,41.2,29.80,SSW,210,8.0,8.0,63,0.00,,,0.02,Wunderground v.1.15,2013-10-06 16:10:00,
2013-10-06 11:15:00,54.0,42.1,29.80,SSW,210,6.0,8.0,64,0.00,,,0.02,Wunderground v.1.15,2013-10-06 16:15:00,
2013-10-06 11:20:00,54.0,41.7,29.80,SW,224,6.0,11.0,63,0.00,,,0.02,Wunderground v.1.15,2013-10-06 16:20:00,
2013-10-06 11:30:00,53.7,41.0,29.79,SW,226,8.0,10.0,62,0.00,,,0.02,Wunderground v.1.15,2013-10-06 16:30:00,
2013-10-06 11:40:00,53.6,42.1,29.80,West,274,4.0,5.0,65,0.00,,,0.02,Wunderground v.1.15,2013-10-06 16:40:00,
2013-10-06 11:45:00,53.6,41.3,29.79,SW,218,5.0,7.0,63,0.00,,,0.02,Wunderground v.1.15,2013-10-06 16:45:00,
2013-10-06 11:50:00,54.0,42.1,29.79,SSW,200,7.0,10.0,64,0.00,,,0.02,Wunderground v.1.15,2013-10-06 16:50:00,
2013-10-06 11:55:00,54.1,42.2,29.79,SSW,207,7.0,10.0,64,0.00,,,0.02,Wunderground v.1.15,2013-10-06 16:55:00,
2013-10-06 12:00:00,53.8,42.3,29.79,SW,229,6.0,6.0,65,0.00,,,0.02,Wunderground v.1.15,2013-10-06 17:00:00,
2013-10-06 12:10:00,54.0,42.1,29.80,WSW,237,4.0,4.0,64,0.00,,,0.02,Wunderground v.1.15,2013-10-06 17:10:00,
2013-10-06 12:15:00,54.2,42.3,29.79,WSW,240,5.0,5.0,64,0.00,,,0.02,Wunderground v.1.15,2013-10-06 17:15:00,
2013-10-06 12:20:00,53.9,42.4,29.79,SW,219,5.0,8.0,65,0.00,,,0.02,Wunderground v.1.15,2013-10-06 17:20:00,
2013-10-06 12:25:00,53.6,41.3,29.79,SW,221,7.0,11.0,63,0.00,,,0.02,Wunderground v.1.15,2013-10-06 17:25:00,
2013-10-06 12:30:00,53.2,41.7,29.80,WSW,241,9.0,9.0,65,0.00,,,0.02,Wunderground v.1.15,2013-10-06 17:30:00,
2013-10-06 12:35:00,52.9,41.8,29.80,SW,228,7.0,10.0,66,0.00,,,0.02,Wunderground v.1.15,2013-10-06 17:35:00,
2013-10-06 12:40:00,52.5,41.9,29.79,SW,229,5.0,5.0,67,0.00,,,0.02,Wunderground v.1.15,2013-10-06 17:40:00,
2013-10-06 12:50:00,52.2,42.3,29.80,SW,221,5.0,5.0,69,0.00,,,0.02,Wunderground v.1.15,2013-10-06 17:50:00,
2013-10-06 12:55:00,52.2,41.6,29.79,SW,235,5.0,11.0,67,0.00,,,0.02,Wunderground v.1.15,2013-10-06 17:55:00,
2013-10-06 13:00:00,52.0,41.4,29.79,SW,228,6.0,6.0,67,0.00,,,0.02,Wunderground v.1.15,2013-10-06 18:00:00,
2013-10-06 13:10:00,51.6,41.0,29.80,SW,235,6.0,6.0,67,0.00,,,0.02,Wunderground v.1.15,2013-10-06 18:10:00,
2013-10-06 13:15:00,51.7,41.1,29.79,SW,230,6.0,8.0,67,0.00,,,0.02,Wunderground v.1.15,2013-10-06 18:15:00,
2013-10-06 13:20:00,51.7,41.1,29.79,WSW,246,8.0,8.0,67,0.00,,,0.02,Wunderground v.1.15,2013-10-06 18:20:00,
2013-10-06 13:25:00,51.4,40.8,29.79,West,275,7.0,8.0,67,0.00,,,0.02,Wunderground v.1.15,2013-10-06 18:25:00,
2013-10-06 13:30:00,51.1,40.9,29.80,SW,221,4.0,4.0,68,0.00,,,0.02,Wunderground v.1.15,2013-10-06 18:30:00,
2013-10-06 13:35:00,50.9,40.7,29.79,WSW,243,5.0,8.0,68,0.00,,,0.02,Wunderground v.1.15,2013-10-06 18:35:00,
2013-10-06 13:40:00,50.8,40.6,29.79,SSW,197,6.0,6.0,68,0.00,,,0.02,Wunderground v.1.15,2013-10-06 18:40:00,
2013-10-06 13:45:00,50.8,41.0,29.79,SW,226,5.0,6.0,69,0.00,,,0.02,Wunderground v.1.15,2013-10-06 18:45:00,
2013-10-06 13:50:00,50.9,40.3,29.79,SW,226,6.0,6.0,67,0.00,,,0.02,Wunderground v.1.15,2013-10-06 18:50:00,
2013-10-06 13:55:00,50.9,40.7,29.80,West,273,6.0,6.0,68,0.00,,,0.02,Wunderground v.1.15,2013-10-06 18:55:00,
2013-10-06 14:00:00,50.8,41.0,29.80,SW,229,5.0,11.0,69,0.00,,,0.02,Wunderground v.1.15,2013-10-06 19:00:00,
2013-10-06 14:05:00,50.6,41.2,29.80,WSW,250,5.0,11.0,70,0.00,,,0.02,Wunderground v.1.15,2013-10-06 19:05:00,
2013-10-06 14:10:00,50.3,40.9,29.80,West,264,4.0,4.0,70,0.00,,,0.02,Wunderground v.1.15,2013-10-06 19:10:00,
2013-10-06 14:15:00,50.2,41.2,29.80,WSW,243,4.0,4.0,71,0.00,,,0.02,Wunderground v.1.15,2013-10-06 19:15:00,
2013-10-06 14:20:00,50.4,41.3,29.79,NNW,340,3.0,3.0,71,0.00,,,0.02,Wunderground v.1.15,2013-10-06 19:20:00,
2013-10-06 14:25:00,51.9,42.0,29.79,SW,221,2.0,9.0,69,0.00,,,0.02,Wunderground v.1.15,2013-10-06 19:25:00,
2013-10-06 14:30:00,52.0,41.8,29.79,SSW,210,5.0,5.0,68,0.00,,,0.02,Wunderground v.1.15,2013-10-06 19:30:00,
2013-10-06 14:35:00,51.9,41.7,29.79,South,187,7.0,7.0,68,0.00,,,0.02,Wunderground v.1.15,2013-10-06 19:35:00,
2013-10-06 14:40:00,52.0,41.4,29.79,WSW,255,8.0,8.0,67,0.00,,,0.02,Wunderground v.1.15,2013-10-06 19:40:00,
2013-10-06 14:45:00,51.7,41.1,29.78,SW,217,7.0,8.0,67,0.00,,,0.02,Wunderground v.1.15,2013-10-06 19:45:00,
2013-10-06 14:50:00,51.4,41.2,29.78,SSW,195,6.0,6.0,68,0.00,,,0.02,Wunderground v.1.15,2013-10-06 19:50:00,
2013-10-06 14:55:00,51.2,41.4,29.78,SSW,197,6.0,6.0,69,0.00,,,0.02,Wunderground v.1.15,2013-10-06 19:55:00,
2013-10-06 15:00:00,51.7,41.9,29.78,SSW,211,6.0,8.0,69,0.00,,,0.02,Wunderground v.1.15,2013-10-06 20:00:00,
2013-10-06 15:05:00,52.0,41.4,29.78,West,278,7.0,8.0,67,0.00,,,0.02,Wunderground v.1.15,2013-10-06 20:05:00,
2013-10-06 15:10:00,51.7,41.5,29.78,SW,214,6.0,7.0,68,0.00,,,0.02,Wunderground v.1.15,2013-10-06 20:10:00,
2013-10-06 15:15:00,52.0,42.1,29.79,SSW,212,7.0,7.0,69,0.00,,,0.02,Wunderground v.1.15,2013-10-06 20:15:00,
2013-10-06 15:20:00,51.8,41.6,29.79,SW,214,7.0,7.0,68,0.00,,,0.02,Wunderground v.1.15,2013-10-06 20:20:00,
2013-10-06 15:25:00,51.9,41.7,29.78,SW,229,8.0,8.0,68,0.00,,,0.02,Wunderground v.1.15,2013-10-06 20:25:00,
2013-10-06 15:30:00,52.0,41.8,29.79,SW,231,7.0,9.0,68,0.00,,,0.02,Wunderground v.1.15,2013-10-06 20:30:00,
2013-10-06 15:35:00,52.2,41.6,29.79,SW,224,8.0,9.0,67,0.00,,,0.02,Wunderground v.1.15,2013-10-06 20:35:00,
2013-10-06 15:40:00,52.2,41.2,29.79,SSW,198,9.0,10.0,66,0.00,,,0.02,Wunderground v.1.15,2013-10-06 20:40:00,
2013-10-06 15:45:00,52.5,41.9,29.78,SW,235,9.0,10.0,67,0.00,,,0.02,Wunderground v.1.15,2013-10-06 20:45:00,
2013-10-06 15:50:00,52.5,41.5,29.78,SW,226,8.0,8.0,66,0.00,,,0.02,Wunderground v.1.15,2013-10-06 20:50:00,
2013-10-06 15:55:00,53.3,41.4,29.78,WSW,238,4.0,8.0,64,0.00,,,0.02,Wunderground v.1.15,2013-10-06 20:55:00,
2013-10-06 16:00:00,52.5,40.7,29.79,South,191,7.0,7.0,64,0.00,,,0.02,Wunderground v.1.15,2013-10-06 21:00:00,
2013-10-06 16:05:00,52.2,41.2,29.78,SW,219,8.0,11.0,66,0.00,,,0.02,Wunderground v.1.15,2013-10-06 21:05:00,
2013-10-06 16:10:00,52.0,41.4,29.79,SW,221,7.0,9.0,67,0.00,,,0.02,Wunderground v.1.15,2013-10-06 21:10:00,
2013-10-06 16:15:00,52.2,41.6,29.78,SW,228,6.0,11.0,67,0.00,,,0.02,Wunderground v.1.15,2013-10-06 21:15:00,
2013-10-06 16:20:00,52.2,41.6,29.79,SW,225,7.0,7.0,67,0.00,,,0.02,Wunderground v.1.15,2013-10-06 21:20:00,
2013-10-06 16:25:00,51.9,41.3,29.79,WSW,248,7.0,7.0,67,0.00,,,0.02,Wunderground v.1.15,2013-10-06 21:25:00,
2013-10-06 16:30:00,51.9,42.0,29.79,SW,235,6.0,7.0,69,0.00,,,0.02,Wunderground v.1.15,2013-10-06 21:30:00,
2013-10-06 16:35:00,51.6,41.8,29.79,SW,228,6.0,7.0,69,0.00,,,0.02,Wunderground v.1.15,2013-10-06 21:35:00,
2013-10-06 16:40:00,51.6,42.1,29.79,SSW,207,7.0,7.0,70,0.00,,,0.02,Wunderground v.1.15,2013-10-06 21:40:00,
2013-10-06 16:45:00,51.7,42.2,29.80,SW,232,5.0,7.0,70,0.00,,,0.02,Wunderground v.1.15,2013-10-06 21:45:00,
2013-10-06 16:50:00,52.1,43.0,29.80,WSW,249,5.0,6.0,71,0.00,,,0.02,Wunderground v.1.15,2013-10-06 21:50:00,
2013-10-06 16:55:00,52.3,42.4,29.80,South,181,6.0,6.0,69,0.00,,,0.02,Wunderground v.1.15,2013-10-06 21:55:00,
2013-10-06 17:00:00,51.8,42.7,29.80,SW,219,7.0,13.0,71,0.00,,,0.02,Wunderground v.1.15,2013-10-06 22:00:00,
2013-10-06 17:05:00,51.2,42.5,29.80,SW,236,8.0,13.0,72,0.00,,,0.02,Wunderground v.1.15,2013-10-06 22:05:00,
2013-10-06 17:10:00,50.9,42.9,29.80,SSW,205,8.0,8.0,74,0.00,,,0.02,Wunderground v.1.15,2013-10-06 22:10:00,
2013-10-06 17:15:00,50.6,43.0,29.80,SW,224,7.0,8.0,75,0.00,,,0.02,Wunderground v.1.15,2013-10-06 22:15:00,
2013-10-06 17:20:00,50.4,43.8,29.81,SSW,212,6.0,6.0,78,0.00,,,0.02,Wunderground v.1.15,2013-10-06 22:20:00,
2013-10-06 17:25:00,50.0,43.7,29.81,WSW,253,4.0,6.0,79,0.00,,,0.02,Wunderground v.1.15,2013-10-06 22:25:00,
2013-10-06 17:30:00,49.4,43.8,29.81,SW,218,5.0,5.0,81,0.00,,,0.02,Wunderground v.1.15,2013-10-06 22:30:00,
2013-10-06 17:35:00,49.1,44.5,29.81,West,271,5.0,5.0,84,0.00,,,0.02,Wunderground v.1.15,2013-10-06 22:35:00,
2013-10-06 17:40:00,48.7,44.7,29.81,SSW,193,4.0,5.0,86,0.00,,,0.02,Wunderground v.1.15,2013-10-06 22:40:00,
2013-10-06 17:50:00,48.0,44.6,29.81,SW,233,5.0,5.0,88,0.00,,,0.02,Wunderground v.1.15,2013-10-06 22:50:00,
2013-10-06 17:55:00,47.8,44.7,29.81,SW,221,4.0,5.0,89,0.00,,,0.02,Wunderground v.1.15,2013-10-06 22:55:00,
2013-10-06 18:00:00,47.8,44.7,29.81,SW,218,3.0,3.0,89,0.00,,,0.02,Wunderground v.1.15,2013-10-06 23:00:00,
2013-10-06 18:10:00,47.6,44.8,29.82,SSW,197,3.0,3.0,90,0.00,,,0.02,Wunderground v.1.15,2013-10-06 23:10:00,
2013-10-06 18:15:00,47.6,44.8,29.82,SW,235,3.0,4.0,90,0.00,,,0.02,Wunderground v.1.15,2013-10-06 23:15:00,
2013-10-06 18:20:00,47.5,44.7,29.82,SW,233,3.0,3.0,90,0.00,,,0.02,Wunderground v.1.15,2013-10-06 23:20:00,
2013-10-06 18:25:00,47.4,44.6,29.82,SW,233,3.0,3.0,90,0.00,,,0.02,Wunderground v.1.15,2013-10-06 23:25:00,
2013-10-06 18:30:00,47.4,44.9,29.82,SW,231,3.0,3.0,91,0.00,,,0.02,Wunderground v.1.15,2013-10-06 23:30:00,
2013-10-06 18:35:00,47.3,44.8,29.82,SW,228,2.0,5.0,91,0.00,,,0.02,Wunderground v.1.15,2013-10-06 23:35:00,
2013-10-06 18:40:00,47.2,44.7,29.82,SW,233,3.0,3.0,91,0.00,,,0.02,Wunderground v.1.15,2013-10-06 23:40:00,
2013-10-06 18:45:00,47.2,45.0,29.83,SSW,203,4.0,4.0,92,0.00,,,0.02,Wunderground v.1.15,2013-10-06 23:45:00,
2013-10-06 18:50:00,47.1,44.9,29.82,SSW,203,3.0,4.0,92,0.00,,,0.02,Wunderground v.1.15,2013-10-06 23:50:00,
2013-10-06 18:55:00,47.1,44.9,29.82,SW,221,3.0,4.0,92,0.00,,,0.02,Wunderground v.1.15,2013-10-06 23:55:00,
2013-10-06 19:00:00,47.0,44.8,29.82,SSW,210,3.0,3.0,92,0.00,,,0.02,Wunderground v.1.15,2013-10-07 00:00:00,
2013-10-06 19:05:00,46.9,44.7,29.83,South,179,3.0,5.0,92,0.00,,,0.02,Wunderground v.1.15,2013-10-07 00:05:00,
2013-10-06 19:10:00,46.9,44.7,29.82,SW,233,4.0,4.0,92,0.00,,,0.02,Wunderground v.1.15,2013-10-07 00:10:00,
2013-10-06 19:15:00,46.8,44.6,29.83,SW,214,5.0,5.0,92,0.00,,,0.02,Wunderground v.1.15,2013-10-07 00:15:00,
2013-10-06 19:20:00,46.7,44.2,29.83,SSW,200,4.0,4.0,91,0.00,,,0.02,Wunderground v.1.15,2013-10-07 00:20:00,
2013-10-06 19:25:00,46.6,44.1,29.83,WSW,238,4.0,4.0,91,0.00,,,0.02,Wunderground v.1.15,2013-10-07 00:25:00,
2013-10-06 19:30:00,46.6,44.1,29.83,SSW,207,3.0,3.0,91,0.00,,,0.02,Wunderground v.1.15,2013-10-07 00:30:00,
2013-10-06 19:35:00,46.6,44.1,29.83,SW,232,3.0,3.0,91,0.00,,,0.02,Wunderground v.1.15,2013-10-07 00:35:00,
2013-10-06 19:40:00,46.6,44.1,29.83,SW,228,3.0,3.0,91,0.00,,,0.02,Wunderground v.1.15,2013-10-07 00:40:00,
2013-10-06 19:45:00,46.7,44.2,29.83,SW,233,3.0,3.0,91,0.00,,,0.02,Wunderground v.1.15,2013-10-07 00:45:00,
2013-10-06 19:50:00,46.7,44.2,29.83,SSW,211,2.0,2.0,91,0.00,,,0.02,Wunderground v.1.15,2013-10-07 00:50:00,
2013-10-06 19:55:00,46.7,44.2,29.83,WSW,246,2.0,3.0,91,0.00,,,0.02,Wunderground v.1.15,2013-10-07 00:55:00,
2013-10-06 20:00:00,46.8,44.3,29.83,SW,226,2.0,2.0,91,0.00,,,0.02,Wunderground v.1.15,2013-10-07 01:00:00,
2013-10-06 20:05:00,46.9,44.4,29.83,SW,217,2.0,2.0,91,0.00,,,0.02,Wunderground v.1.15,2013-10-07 01:05:00,
2013-10-06 20:10:00,46.9,44.4,29.83,SW,218,2.0,2.0,91,0.00,,,0.02,Wunderground v.1.15,2013-10-07 01:10:00,
2013-10-06 20:15:00,46.9,44.7,29.83,NW,307,1.0,2.0,92,0.00,,,0.02,Wunderground v.1.15,2013-10-07 01:15:00,
2013-10-06 20:20:00,46.9,44.7,29.83,SSW,212,0.0,0.0,92,0.00,,,0.02,Wunderground v.1.15,2013-10-07 01:20:00,
2013-10-06 20:25:00,46.8,44.6,29.83,West,274,1.0,2.0,92,0.00,,,0.02,Wunderground v.1.15,2013-10-07 01:25:00,
2013-10-06 20:30:00,46.7,44.5,29.83,WNW,295,1.0,1.0,92,0.00,,,0.02,Wunderground v.1.15,2013-10-07 01:30:00,
2013-10-06 20:35:00,46.5,44.3,29.83,SW,218,1.0,1.0,92,0.00,,,0.03,Wunderground v.1.15,2013-10-07 01:35:00,
2013-10-06 20:40:00,46.2,44.0,29.83,SW,231,1.0,1.0,92,0.08,,,0.04,Wunderground v.1.15,2013-10-07 01:40:00,
2013-10-06 20:45:00,46.2,44.3,29.83,WSW,250,1.0,1.0,93,0.08,,,0.04,Wunderground v.1.15,2013-10-07 01:45:00,
2013-10-06 20:50:00,46.1,44.2,29.83,SW,219,1.0,1.0,93,0.07,,,0.05,Wunderground v.1.15,2013-10-07 01:50:00,
2013-10-06 20:55:00,46.1,44.5,29.83,West,280,1.0,1.0,94,0.16,,,0.07,Wunderground v.1.15,2013-10-07 01:55:00,
2013-10-06 21:00:00,46.1,44.5,29.83,West,280,1.0,1.0,94,0.12,,,0.08,Wunderground v.1.15,2013-10-07 02:00:00,
2013-10-06 21:05:00,46.2,44.6,29.83,WNW,286,0.0,1.0,94,0.06,,,0.08,Wunderground v.1.15,2013-10-07 02:05:00,
2013-10-06 21:15:00,46.3,44.7,29.83,WSW,250,1.0,1.0,94,0.05,,,0.09,Wunderground v.1.15,2013-10-07 02:15:00,
2013-10-06 21:20:00,46.4,45.0,29.83,SSW,207,0.0,0.0,95,0.05,,,0.09,Wunderground v.1.15,2013-10-07 02:20:00,
2013-10-06 21:25:00,46.4,45.0,29.83,SW,233,0.0,1.0,95,0.00,,,0.09,Wunderground v.1.15,2013-10-07 02:25:00,
2013-10-06 21:30:00,46.4,45.0,29.83,SW,217,1.0,1.0,95,0.00,,,0.09,Wunderground v.1.15,2013-10-07 02:30:00,
2013-10-06 21:35:00,46.4,45.0,29.83,SW,218,0.0,1.0,95,0.00,,,0.09,Wunderground v.1.15,2013-10-07 02:35:00,
2013-10-06 21:40:00,46.4,45.0,29.83,SW,235,0.0,0.0,95,0.00,,,0.09,Wunderground v.1.15,2013-10-07 02:40:00,
2013-10-06 21:45:00,46.4,45.0,29.83,SW,228,0.0,0.0,95,0.00,,,0.09,Wunderground v.1.15,2013-10-07 02:45:00,
2013-10-06 21:50:00,46.3,44.9,29.83,SW,235,0.0,0.0,95,0.00,,,0.09,Wunderground v.1.15,2013-10-07 02:50:00,
2013-10-06 21:55:00,46.3,44.9,29.83,SW,225,0.0,0.0,95,0.00,,,0.09,Wunderground v.1.15,2013-10-07 02:55:00,
2013-10-06 22:00:00,46.2,44.8,29.83,NW,312,0.0,1.0,95,0.00,,,0.09,Wunderground v.1.15,2013-10-07 03:00:00,
2013-10-06 22:05:00,46.2,44.8,29.83,NW,312,1.0,1.0,95,0.00,,,0.09,Wunderground v.1.15,2013-10-07 03:05:00,
2013-10-06 22:10:00,46.2,44.8,29.83,WSW,256,1.0,1.0,95,0.00,,,0.09,Wunderground v.1.15,2013-10-07 03:10:00,
2013-10-06 22:15:00,46.1,44.7,29.83,WNW,295,0.0,2.0,95,0.00,,,0.09,Wunderground v.1.15,2013-10-07 03:15:00,
2013-10-06 22:20:00,46.1,44.7,29.83,WSW,238,0.0,1.0,95,0.00,,,0.09,Wunderground v.1.15,2013-10-07 03:20:00,
2013-10-06 22:25:00,46.1,44.7,29.84,West,279,1.0,1.0,95,0.00,,,0.09,Wunderground v.1.15,2013-10-07 03:25:00,
2013-10-06 22:30:00,46.1,44.7,29.83,West,280,1.0,1.0,95,0.00,,,0.09,Wunderground v.1.15,2013-10-07 03:30:00,
2013-10-06 22:35:00,46.1,44.7,29.83,WSW,243,1.0,2.0,95,0.00,,,0.09,Wunderground v.1.15,2013-10-07 03:35:00,
2013-10-06 22:45:00,46.1,44.7,29.83,WSW,257,1.0,1.0,95,0.00,,,0.09,Wunderground v.1.15,2013-10-07 03:45:00,
2013-10-06 22:55:00,46.0,44.6,29.84,WNW,302,1.0,1.0,95,0.00,,,0.09,Wunderground v.1.15,2013-10-07 03:55:00,
2013-10-06 23:00:00,46.0,44.6,29.83,West,260,1.0,1.0,95,0.00,,,0.09,Wunderground v.1.15,2013-10-07 04:00:00,
2013-10-06 23:05:00,46.0,44.6,29.84,West,279,1.0,1.0,95,0.00,,,0.09,Wunderground v.1.15,2013-10-07 04:05:00,
2013-10-06 23:10:00,45.9,44.5,29.83,NNW,328,0.0,1.0,95,0.00,,,0.09,Wunderground v.1.15,2013-10-07 04:10:00,
2013-10-06 23:15:00,45.9,44.5,29.83,West,274,0.0,1.0,95,0.00,,,0.09,Wunderground v.1.15,2013-10-07 04:15:00,
2013-10-06 23:20:00,45.9,44.5,29.83,West,277,1.0,1.0,95,0.00,,,0.09,Wunderground v.1.15,2013-10-07 04:20:00,
2013-10-06 23:25:00,45.9,44.5,29.83,West,274,0.0,1.0,95,0.00,,,0.09,Wunderground v.1.15,2013-10-07 04:25:00,
2013-10-06 23:30:00,45.9,44.5,29.84,WNW,294,1.0,1.0,95,0.00,,,0.09,Wunderground v.1.15,2013-10-07 04:30:00,
2013-10-06 23:35:00,45.9,44.5,29.84,NW,308,1.0,4.0,95,0.00,,,0.09,Wunderground v.1.15,2013-10-07 04:35:00,
2013-10-06 23:40:00,45.9,44.5,29.84,WNW,297,1.0,1.0,95,0.00,,,0.09,Wunderground v.1.15,2013-10-07 04:40:00,
2013-10-06 23:45:00,46.0,44.6,29.84,NNW,348,2.0,2.0,95,0.00,,,0.09,Wunderground v.1.15,2013-10-07 04:45:00,
2013-10-06 23:50:00,46.0,44.6,29.84,West,259,1.0,1.0,95,0.00,,,0.09,Wunderground v.1.15,2013-10-07 04:50:00,